Terug naar catalogus

STARLINK-32168

ActiefCommunicatieVLEO
NORAD 60335·PAYLOAD·🇺🇸 United States

Gelanceerd Aug 2, 2024 vanaf Cape Canaveral Space Force Station

Loading…

Volgende Passages (komende 24 uur)

TLE

VersSource: CelesTrak SupGP

Epoch: Sep 14, 2026, 14:55 UTC

1 60335C 24136G   26257.62201389 -.00010183  00000+0 -30091-3 0  2573
2 60335  53.1579 277.3706 0001246  80.4621 192.0856 15.34389379    19

Volg STARLINK-32168 in realtime met AllMySat

Download on the App Store